カタログに戻る

STARLINK-36408

運用中通信VLEO
NORAD 67473·PAYLOAD·🇺🇸 United States

打ち上げ Jan 14, 2026 から Cape Canaveral Space Force Station

Loading…

次のパス (今後24時間)

TLE

最新Source: CelesTrak SupGP

元期: Sep 14, 2026, 21:37 UTC

1 67473C 26008AE  26257.90118056  .00019252  00000+0  69729-3 0  2576
2 67473  43.0029 216.7539 0001332 258.7714 272.5714 15.27569815    11

AllMySatでSTARLINK-36408をリアルタイム追跡

Download on the App Store